Terminal Aerodrome Forecast
Issued by NWS

Home | Current Version | Previous Version | Text Only | Print | Product List | Glossary On
Versions: 1 2 3 4 5 6 7 8 9 10 11 12 13 14 15 16 17 18 19 20 21 22 23 24 25 26 27 28 29 30 31 32 33 34 35 36 37 38 39 40 41 42 43 44 45 46 47 48 49 50
000
FTAK31 PANC 161140
TAFACV
TAF
PACV 161140Z 1612/1712 07008G15KT 6SM -RA BR BKN025 OVC040
     FM161500 09008G18KT 3SM -RA BR BKN015 OVC025
     FM161800 12010G20KT 2SM RASN BR SCT008 OVC015
     FM162200 12010G20KT 2SM -SN BR BKN008 OVC015
     FM170900 11012G22KT 3SM -SHSN BR OVC007=

USA.gov is the U.S. government's official web portal to all federal, state and local government web resources and services.